User: anonymous   Login
Location: Podia
(1.5569°N, 32.3469°E)
Time: 11:52:43
(UTC+00:00)
Language:

ARIANE 5 DEB (SYLDA) - Orbit

View from above orbital plane
View from above orbital plane
View from above satellite
View from above satellite

Ground track
Ground track

The orbit data is extracted from the following two-line orbital elements,

1 29164U 06020C   21166.90016981  .00023369  00000-0  22651-2 0  9991
2 29164   6.8244  48.1447 4637478  13.6121 355.5863  6.27167199254766
Epoch (UTC): 15 June 2021 21:36:14
Eccentricity: 0.4637478
inclination: 6.8244°
perigee height: 282 km
apogee height: 11802 km
right ascension of ascending node: 48.1447°
argument of perigee: 13.6121°
revolutions per day: 6.27167199
mean anomaly at epoch: 355.5863°
orbit number at epoch: 25476

The dashed part of the orbit path shows where the satellite is in the earth's shadow,  

DLR